Location: R�serve Fauniques des Laurentides
(47.3100°N, 71.1900°W)
Time: 08:16:53
(UTC-04:00)

Amateur Radio Satellites - All Passes

Search period start: 29 May 2015 07:46
Search period end: 30 May 2015 07:46
Location: R�serve Fauniques des Laurentides, 47.3100°N, 71.1900°W

Satellite Date Start Highest point End Downlink Frequencies (MHz)
Time Altitude Azimuth
AO-7 29 May 07:51:33 07:56:57 19° 318° (NW) 08:02:04 29.400- 29.500
HO-68 29 May 07:53:53 07:57:16 14° 83° (E) 08:01:06 435.675
Cubesat XI-IV 29 May 08:00:57 08:06:04 46° 292° (WNW) 08:11:10 437.490
DOVE 4 29 May 08:01:08 08:02:11 11° 81° (E) 08:03:33 437.250
PCSat 29 May 08:01:25 08:06:02 28° 40° (NE) 08:10:42 145.827
Cosmos 2491 29 May 08:46:45 08:52:19 18° 285° (WNW) 08:57:27 435.465 / 435.565
GOMX 1 29 May 08:47:03 08:52:11 44° 96° (E) 08:57:04 467.674
UNISAT 6 29 May 08:56:42 08:59:06 14° 60° (ENE) 09:01:38 437.425
CINEMA 3 29 May 08:56:45 08:59:49 17° 87° (E) 09:02:55 145.822/145.860
BRITE-PL 29 May 08:56:45 09:02:28 80° 101° (ESE) 09:07:54 437.365/2234.400
SO-50 29 May 09:01:00 09:04:11 17° 25° (NNE) 09:07:26 436.795
CANX-2 29 May 09:08:10 09:12:12 43° 98° (E) 09:16:14 2200.000
CUTE 1.7 + AOD 2 29 May 09:11:20 09:15:21 42° 98° (E) 09:19:22 437.475
Cosmos 2504 29 May 09:17:19 09:24:47 42° 89° (E) 09:31:54 435.465 / 435.565
CUTE-I 29 May 09:21:40 09:23:59 13° 306° (NW) 09:26:05 437.470
POPSAT HIP 1 29 May 09:21:54 09:22:56 11° 58° (ENE) 09:24:09 437.405
DUCHIFAT 1 29 May 09:22:02 09:22:48 11° 58° (ENE) 09:23:47 145.980
Oscar 11 29 May 09:29:03 09:32:07 19° 91° (E) 09:35:15 145.826/435.025
SEEDS 29 May 09:29:57 09:34:05 56° 100° (E) 09:38:11 437.485
CUBEBUG 2 29 May 09:31:36 09:34:42 19° 89° (E) 09:37:51 437.445
RS-15 29 May 09:34:43 09:45:38 90° 162° (SSE) 09:57:00 29.354- 29.394
DOVE 4 29 May 09:35:50 09:41:00 80° 102° (ESE) 09:45:51 437.250
ANTELSAT 29 May 09:38:05 09:42:13 32° 67° (ENE) 09:46:19 437.575/2403.000
COMPASS 1 29 May 09:39:10 09:43:16 56° 100° (E) 09:47:22 437.405
HO-68 29 May 09:39:15 09:46:26 74° 104° (ESE) 09:53:35 435.675
YUBILEINY 29 May 09:41:29 09:48:28 25° 302° (WNW) 09:55:10 435.215
PCSat 29 May 09:44:32 09:49:56 65° 241° (WSW) 09:55:17 145.827
AAUSAT CUBESAT 2 29 May 09:49:07 09:53:15 63° 101° (E) 09:57:21 437.432
DELFI C3 29 May 09:59:56 10:03:23 27° 94° (E) 10:06:53 145.870
QB50P1 29 May 10:02:47 10:06:19 26° 66° (ENE) 10:09:55 145.935-145.965
POLYITAN 1 29 May 10:06:03 10:09:43 28° 67° (ENE) 10:13:27 437.675
TIGRISAT 29 May 10:09:08 10:13:44 60° 73° (ENE) 10:18:18 435.000
UWE-3 29 May 10:12:57 10:17:05 39° 97° (E) 10:21:05 435.000/436.395/437.385
FUNcube-1 29 May 10:16:16 10:20:11 32° 95° (E) 10:24:00 145.935
GOMX 1 29 May 10:25:27 10:30:07 30° 296° (WNW) 10:34:30 467.674
AISAT 29 May 10:28:47 10:30:34 12° 86° (E) 10:32:34 437.250
UNISAT 6 29 May 10:30:38 10:35:20 83° 259° (WSW) 10:39:58 437.425
HUMSAT D 29 May 10:31:34 10:34:50 22° 92° (E) 10:38:09 437.325/437.525
NANOSAT C BR1 29 May 10:32:27 10:36:35 49° 71° (ENE) 10:40:45 145.865
CINEMA 3 29 May 10:32:50 10:37:31 58° 288° (WNW) 10:41:57 145.822/145.860
BRITE-PL 29 May 10:36:20 10:40:20 20° 301° (WNW) 10:44:04 437.365/2234.400
SO-50 29 May 10:40:54 10:45:49 56° 47° (NE) 10:50:40 436.795
QB50P2 29 May 10:42:16 10:46:31 64° 73° (ENE) 10:50:49 145.880/145.840
CANX-2 29 May 10:44:42 10:47:53 21° 295° (WNW) 10:50:59 2200.000
CUTE 1.7 + AOD 2 29 May 10:47:49 10:51:02 21° 295° (WNW) 10:54:10 437.475
50 SAT 29 May 10:52:34 10:55:28 20° 92° (E) 10:58:25 437.505
DUCHIFAT 1 29 May 10:53:40 10:57:56 80° 75° (ENE) 11:02:15 145.980
POPSAT HIP 1 29 May 10:53:51 10:58:08 82° 75° (ENE) 11:02:29 437.405
UKube-1 29 May 10:54:15 10:58:16 36° 97° (E) 11:02:18 .
ZACube-1 29 May 10:57:41 11:02:03 89° 103° (ESE) 11:06:17 437.345
Oscar 11 29 May 11:04:25 11:08:34 46° 289° (WNW) 11:12:41 145.826/435.025
BUGSAT 1 29 May 11:05:11 11:09:21 74° 75° (ENE) 11:13:36 437.445
DX 1 29 May 11:06:39 11:10:58 52° 100° (E) 11:15:16 434.975-435.025
SEEDS 29 May 11:06:46 11:09:31 17° 297° (WNW) 11:12:07 437.485
CUBEBUG 2 29 May 11:07:26 11:11:46 48° 289° (WNW) 11:15:54 437.445
Cosmos 2504 29 May 11:10:21 11:18:10 46° 288° (WNW) 11:25:27 435.465 / 435.565
ANTELSAT 29 May 11:14:45 11:18:59 32° 265° (W) 11:23:06 437.575/2403.000
DOVE 4 29 May 11:14:50 11:18:06 17° 302° (WNW) 11:21:07 437.250
COMPASS 1 29 May 11:15:54 11:18:34 16° 297° (WNW) 11:21:06 437.405
CUBEBUG 1 29 May 11:22:02 11:25:30 22° 92° (E) 11:29:02 437.445
AAUSAT CUBESAT 2 29 May 11:25:59 11:28:26 15° 298° (WNW) 11:30:45 437.432
HO-68 29 May 11:27:45 11:33:38 28° 304° (NW) 11:39:22 435.675
VELOX 1 29 May 11:30:45 11:35:06 48° 99° (E) 11:39:27 145.980
DANDE 29 May 11:34:03 11:39:25 22° 79° (E) 11:45:31 436.750
DELFI C3 29 May 11:35:00 11:38:29 28° 292° (WNW) 11:41:55 145.870
QB50P1 29 May 11:38:06 11:42:04 35° 264° (W) 11:46:02 145.935-145.965
POLYITAN 1 29 May 11:41:39 11:45:34 32° 264° (W) 11:49:28 437.675
ESTCUBE 1 29 May 11:43:45 11:48:03 41° 98° (E) 11:52:21 437.505/2401.250
CUSAT 1 29 May 11:46:20 11:52:55 32° 86° (E) 12:00:04 437.405
TIGRISAT 29 May 11:47:45 11:50:54 17° 271° (W) 11:53:53 435.000
RS-15 29 May 11:49:23 11:59:37 40° 336° (NNW) 12:10:12 29.354- 29.394
UWE-3 29 May 11:49:52 11:53:26 24° 295° (WNW) 11:56:50 435.000/436.395/437.385
SPROUT 29 May 11:51:53 11:53:57 13° 87° (E) 11:56:11 437.525
FUNcube-1 29 May 11:52:44 11:56:25 27° 294° (WNW) 11:59:59 145.935
AISAT 29 May 12:03:17 12:07:49 79° 286° (WNW) 12:12:17 437.250
TISAT 1 29 May 12:05:06 12:07:02 13° 87° (E) 12:09:09 437.305
HUMSAT D 29 May 12:06:53 12:10:44 36° 291° (WNW) 12:14:31 437.325/437.525
NANOSAT C BR1 29 May 12:09:41 12:12:44 18° 270° (W) 12:15:40 145.865
GONETS M04 29 May 12:11:46 12:19:29 37° 85° (E) 12:27:22
UNISAT 6 29 May 12:12:17 12:12:55 10° 276° (W) 12:13:15 437.425
QB50P2 29 May 12:20:30 12:22:55 14° 272° (W) 12:25:10 145.880/145.840
SO-50 29 May 12:21:59 12:26:05 25° 245° (WSW) 12:30:03 436.795
50 SAT 29 May 12:26:44 12:30:19 35° 290° (WNW) 12:33:50 437.505
Gurwin Techsat 1B 29 May 12:29:16 12:31:30 13° 55° (NE) 12:33:59 435.225
UKube-1 29 May 12:30:38 12:34:17 26° 295° (WNW) 12:37:53 .
DUCHIFAT 1 29 May 12:32:54 12:34:24 11° 274° (W) 12:35:40 145.980
POPSAT HIP 1 29 May 12:33:19 12:34:41 11° 274° (W) 12:35:49 437.405
ZACube-1 29 May 12:36:05 12:37:46 12° 302° (WNW) 12:39:15 437.345
DX 1 29 May 12:43:40 12:46:53 20° 298° (WNW) 12:50:00 434.975-435.025
BUGSAT 1 29 May 12:43:45 12:45:27 12° 274° (W) 12:46:55 437.445
Oscar 19 29 May 12:52:14 12:57:17 56° 71° (ENE) 13:02:24 437.125/150
CUBEBUG 1 29 May 12:57:50 13:02:04 43° 290° (WNW) 13:06:16 437.445
VELOX 1 29 May 13:07:56 13:11:23 22° 297° (WNW) 13:14:44 145.980
ITAMSAT 1 29 May 13:12:59 13:17:21 29° 64° (ENE) 13:21:49 435.822/435.867
DANDE 29 May 13:13:53 13:21:31 85° 100° (E) 13:30:12 436.750
AO-7 29 May 13:18:42 13:23:48 19° 42° (NE) 13:29:09 29.400- 29.500
ESTCUBE 1 29 May 13:21:01 13:24:45 25° 295° (WNW) 13:28:24 437.505/2401.250
SPROUT 29 May 13:26:14 13:30:35 69° 286° (WNW) 13:34:52 437.525
CUSAT 1 29 May 13:27:20 13:35:07 68° 286° (WNW) 13:43:27 437.405
TISAT 1 29 May 13:39:05 13:43:22 69° 287° (WNW) 13:47:36 437.305
Cosmos 2499 29 May 13:40:42 13:46:26 24° 83° (E) 13:52:09 435.465 / 435.565
JAS-2 29 May 13:40:44 13:43:26 14° 56° (NE) 13:46:15 435.910
AISAT 29 May 13:42:12 13:43:41 11° 303° (WNW) 13:44:59 437.250
Gurwin Techsat 1B 29 May 14:05:23 14:10:40 73° 73° (ENE) 14:16:00 435.225
RS-15 29 May 14:05:55 14:15:48 33° 9° (N) 14:26:08 29.354- 29.394
GONETS M04 29 May 14:07:19 14:16:01 58° 286° (WNW) 14:24:44
ITUPSAT 1 29 May 14:10:47 14:15:20 42° 98° (E) 14:19:54 437.325
BEESAT 29 May 14:16:40 14:21:18 48° 99° (E) 14:25:56 436.000
SWISSCUBE 29 May 14:25:33 14:30:19 64° 101° (E) 14:35:04 437.505
Oscar 19 29 May 14:32:59 14:37:03 22° 269° (W) 14:41:00 437.125/150
ITAMSAT 1 29 May 14:51:47 14:56:43 44° 262° (W) 15:01:41 435.822/435.867
DANDE 29 May 14:59:16 15:05:57 28° 303° (WNW) 15:12:56 436.750
AO-7 29 May 15:07:01 15:15:08 62° 64° (ENE) 15:23:20 29.400- 29.500
HORYU 2 29 May 15:07:45 15:12:06 51° 71° (ENE) 15:16:27 437.375
KKS-1 29 May 15:13:24 15:17:30 35° 96° (E) 15:21:36 437.445
CUSAT 1 29 May 15:13:52 15:19:34 19° 308° (NW) 15:25:01 437.405
O/OREOS (USA 219) 29 May 15:16:19 15:20:43 56° 111° (ESE) 15:25:08 437.305
JAS-2 29 May 15:21:28 15:27:51 71° 73° (ENE) 15:33:33 435.910
Cosmos 2499 29 May 15:30:59 15:38:59 76° 281° (W) 15:46:25 435.465 / 435.565
Gurwin Techsat 1B 29 May 15:47:45 15:51:18 17° 272° (W) 15:54:40 435.225
ITUPSAT 1 29 May 15:49:03 15:53:04 27° 296° (WNW) 15:57:01 437.325
YUBILEINY 29 May 15:53:29 15:56:40 13° 45° (NE) 16:00:21 435.215
BEESAT 29 May 15:55:05 15:58:53 24° 297° (WNW) 16:02:36 436.000
SWISSCUBE 29 May 16:04:24 16:07:45 19° 299° (WNW) 16:11:00 437.505
STARS 29 May 16:10:33 16:15:01 83° 101° (E) 16:19:26 437.465
GONETS M04 29 May 16:10:40 16:15:25 15° 313° (NW) 16:19:43
Cubesat XI-IV 29 May 16:10:51 16:12:17 11° 52° (NE) 16:13:57 437.490
RS-15 29 May 16:19:53 16:31:11 59° 40° (NE) 16:43:02 29.354- 29.394
HORYU 2 29 May 16:45:50 16:49:05 19° 269° (W) 16:52:12 437.375
KKS-1 29 May 16:50:11 16:54:03 28° 294° (WNW) 16:57:50 437.445
BEESAT 2 29 May 16:55:26 16:58:21 19° 114° (ESE) 17:01:24 435.950
O/OREOS (USA 219) 29 May 16:57:03 17:00:32 21° 311° (NW) 17:03:55 437.305
AO-7 29 May 17:00:59 17:08:27 35° 265° (W) 17:15:51 29.400- 29.500
MOZHAYETS 4 29 May 17:02:25 17:06:47 42° 98° (E) 17:11:08
JAS-2 29 May 17:08:45 17:13:28 21° 270° (W) 17:17:40 435.910
CUTE-I 29 May 17:25:05 17:30:00 41° 67° (ENE) 17:35:01 437.470
Cosmos 2499 29 May 17:28:40 17:33:35 17° 304° (NW) 17:38:00 435.465 / 435.565
BEESAT 3 29 May 17:39:15 17:43:16 61° 124° (ESE) 17:47:21 437.485
Cubesat XI-IV 29 May 17:46:13 17:51:26 62° 71° (ENE) 17:56:44 437.490
YUBILEINY 29 May 17:47:52 17:56:17 52° 72° (ENE) 18:04:44 435.215
STARS 29 May 17:48:39 17:50:54 14° 301° (WNW) 17:52:58 437.465
Cosmos 2491 29 May 17:58:17 18:05:01 27° 81° (E) 18:12:04 435.465 / 435.565
GOMX 1 29 May 18:23:37 18:25:28 12° 54° (NE) 18:27:36 467.674
HO-68 29 May 18:26:29 18:31:03 19° 50° (NE) 18:35:51 435.675
BEESAT 2 29 May 18:32:04 18:36:07 54° 312° (NW) 18:40:13 435.950
RS-15 29 May 18:32:37 18:43:47 55° 245° (WSW) 18:55:18 29.354- 29.394
BRITE-PL 29 May 18:33:34 18:37:24 21° 60° (ENE) 18:41:31 437.365/2234.400
MOZHAYETS 4 29 May 18:40:06 18:43:48 24° 295° (WNW) 18:47:26
AIST 2 29 May 18:40:25 18:44:37 62° 124° (ESE) 18:48:53 435.215
CUBESAT XI-V 29 May 18:49:07 18:53:39 46° 98° (E) 18:58:12 437.345
PRISM 29 May 18:57:31 19:00:50 23° 93° (E) 19:04:14 437.425
CUTE-I 29 May 19:05:30 19:10:13 31° 266° (W) 19:14:55 437.470
Cosmos 2504 29 May 19:06:21 19:10:34 17° 55° (NE) 19:15:03 435.465 / 435.565
DOVE 4 29 May 19:08:10 19:11:40 19° 60° (ENE) 19:15:22 437.250
BEESAT 3 29 May 19:18:19 19:21:37 22° 323° (NW) 19:24:53 437.485
Cubesat XI-IV 29 May 19:28:02 19:32:02 21° 270° (W) 19:35:55 437.490
STRAND 1 29 May 19:40:30 19:45:35 57° 101° (E) 19:50:40 437.568
YUBILEINY 29 May 19:45:03 19:53:00 41° 273° (W) 20:00:49 435.215
Cosmos 2491 29 May 19:52:16 20:01:06 77° 281° (WNW) 20:10:00 435.465 / 435.565
GOMX 1 29 May 19:57:23 20:02:35 64° 73° (ENE) 20:08:03 467.674
CINEMA 3 29 May 20:00:47 20:04:53 26° 65° (ENE) 20:09:03 145.822/145.860
CANX-2 29 May 20:03:59 20:08:04 47° 71° (ENE) 20:12:10 2200.000
CUTE 1.7 + AOD 2 29 May 20:07:05 20:11:08 46° 71° (ENE) 20:15:14 437.475
BRITE-PL 29 May 20:10:04 20:15:20 72° 259° (W) 20:20:57 437.365/2234.400
HO-68 29 May 20:10:37 20:17:46 75° 70° (ENE) 20:24:58 435.675
BEESAT 2 29 May 20:13:03 20:15:08 13° 333° (NNW) 20:17:09 435.950
AIST 1 29 May 20:19:22 20:23:34 59° 96° (E) 20:27:50
AIST 2 29 May 20:20:05 20:23:34 23° 323° (NW) 20:27:02 435.215
ZACube-1 29 May 20:22:32 20:24:55 15° 60° (ENE) 20:27:27 437.345
SEEDS 29 May 20:24:50 20:28:58 58° 73° (ENE) 20:33:07 437.485
Oscar 11 29 May 20:26:55 20:30:18 23° 65° (ENE) 20:33:46 145.826/435.025
CUBESAT XI-V 29 May 20:27:04 20:30:51 24° 296° (WNW) 20:34:33 437.345
CUBEBUG 2 29 May 20:32:22 20:36:17 26° 66° (ENE) 20:40:15 437.445
PRISM 29 May 20:32:34 20:36:24 36° 291° (WNW) 20:40:14 437.425
COMPASS 1 29 May 20:33:13 20:37:19 58° 73° (ENE) 20:41:27 437.405
M-CUBED/EXP-1 PRIME 29 May 20:42:06 20:45:26 87° 292° (WNW) 20:48:46 437.505
AAUSAT CUBESAT 2 29 May 20:42:44 20:46:50 63° 74° (ENE) 20:50:58 437.432
DOVE 4 29 May 20:43:37 20:48:50 77° 257° (WSW) 20:54:13 437.250
AUBIESAT-1 29 May 20:47:20 20:50:40 88° 293° (WNW) 20:54:00 437.475
RS-15 29 May 20:49:34 20:53:55 12° 265° (W) 20:57:11 29.354- 29.394
DELFI C3 29 May 20:50:27 20:53:50 27° 67° (ENE) 20:57:16 145.870
Cosmos 2504 29 May 20:58:12 21:05:27 79° 79° (E) 21:12:40 435.465 / 435.565
UWE-3 29 May 21:12:34 21:17:05 49° 71° (ENE) 21:21:34 435.000/436.395/437.385
FUNcube-1 29 May 21:14:37 21:18:54 40° 70° (ENE) 21:23:09 145.935
STRAND 1 29 May 21:20:25 21:24:27 23° 299° (WNW) 21:28:23 437.568
HUMSAT D 29 May 21:26:17 21:29:50 26° 67° (ENE) 21:33:26 437.325/437.525
AISAT 29 May 21:29:16 21:32:14 18° 62° (ENE) 21:35:20 437.250
CINEMA 3 29 May 21:36:59 21:41:50 47° 262° (W) 21:46:42 145.822/145.860
GOMX 1 29 May 21:37:14 21:41:14 21° 273° (W) 21:45:12 467.674
50 SAT 29 May 21:40:26 21:43:21 20° 65° (ENE) 21:46:20 437.505
CANX-2 29 May 21:41:13 21:44:17 18° 270° (W) 21:47:14 2200.000
CUTE 1.7 + AOD 2 29 May 21:44:14 21:47:20 19° 270° (W) 21:50:19 437.475
UKube-1 29 May 21:51:57 21:56:05 46° 70° (ENE) 22:00:17 .
Cosmos 2491 29 May 21:53:35 21:59:50 20° 307° (NW) 22:05:47 435.465 / 435.565
BRITE-PL 29 May 21:53:35 21:55:04 11° 280° (W) 21:56:11 437.365/2234.400
ZACube-1 29 May 21:56:08 22:00:44 80° 257° (WSW) 22:05:19 437.345
AIST 1 29 May 21:59:07 22:01:43 15° 296° (WNW) 22:04:12
HO-68 29 May 22:00:32 22:06:16 24° 270° (W) 22:11:49 435.675
Oscar 11 29 May 22:02:12 22:06:18 40° 263° (W) 22:10:24 145.826/435.025
SEEDS 29 May 22:02:42 22:05:12 15° 272° (W) 22:07:33 437.485
DX 1 29 May 22:05:05 22:09:24 68° 73° (ENE) 22:13:47 434.975-435.025
CUBEBUG 2 29 May 22:08:15 22:12:48 42° 263° (W) 22:17:18 437.445
COMPASS 1 29 May 22:10:58 22:13:26 15° 272° (W) 22:15:44 437.405
ISS 29 May 22:11:22 22:13:40 18° 138° (SE) 22:16:00 145.825
DANDE 29 May 22:11:26 22:17:08 22° 52° (NE) 22:22:17 436.750
GONETS M04 29 May 22:17:29 22:23:53 22° 56° (NE) 22:30:31
AAUSAT CUBESAT 2 29 May 22:20:46 22:22:56 13° 272° (W) 22:24:55 437.432
UNISAT 6 29 May 22:20:51 22:23:30 16° 88° (E) 22:26:15 437.425
CUBEBUG 1 29 May 22:21:13 22:24:54 28° 66° (ENE) 22:28:42 437.445
CUSAT 1 29 May 22:22:02 22:28:01 27° 58° (ENE) 22:33:04 437.405
DELFI C3 29 May 22:25:20 22:28:53 29° 265° (W) 22:32:25 145.870
DOVE 4 29 May 22:25:45 22:27:36 11° 278° (W) 22:29:08 437.250
VELOX 1 29 May 22:31:12 22:35:36 64° 73° (ENE) 22:40:02 145.980
DUCHIFAT 1 29 May 22:38:12 22:38:44 10° 85° (E) 22:39:31 145.980
POPSAT HIP 1 29 May 22:38:28 22:39:26 11° 85° (E) 22:40:39 437.405
ESTCUBE 1 29 May 22:46:21 22:50:42 55° 72° (ENE) 22:55:08 437.505/2401.250
SPROUT 29 May 22:49:06 22:51:50 17° 62° (ENE) 22:54:42 437.525
UWE-3 29 May 22:50:15 22:53:52 21° 269° (W) 22:57:23 435.000/436.395/437.385
FUNcube-1 29 May 22:51:33 22:55:21 25° 267° (W) 22:59:04 145.935
Cosmos 2504 29 May 22:52:56 22:58:01 20° 279° (W) 23:02:50 435.465 / 435.565
TISAT 1 29 May 23:00:17 23:02:54 16° 62° (ENE) 23:05:38 437.305
HUMSAT D 29 May 23:01:29 23:05:28 35° 264° (W) 23:09:25 437.325/437.525
ANTELSAT 29 May 23:03:15 23:07:25 41° 98° (E) 23:11:30 437.575/2403.000
AISAT 29 May 23:04:00 23:08:25 60° 259° (W) 23:12:53 437.250
50 SAT 29 May 23:14:03 23:17:50 40° 262° (W) 23:21:36 437.505
QB50P1 29 May 23:19:58 23:23:43 29° 95° (E) 23:27:29 145.935-145.965
POLYITAN 1 29 May 23:23:41 23:27:32 32° 96° (E) 23:31:24 437.675
UKube-1 29 May 23:29:16 23:32:30 20° 269° (W) 23:35:38 .
BEESAT 2 29 May 23:34:21 23:35:08 10° 21° (NNE) 23:36:01 435.950
TIGRISAT 29 May 23:34:27 23:38:53 85° 105° (ESE) 23:43:11 435.000
DX 1 29 May 23:43:50 23:46:12 14° 272° (W) 23:48:23 434.975-435.025
O/OREOS (USA 219) 29 May 23:44:14 23:47:57 25° 52° (NE) 23:51:43 437.305
ISS 29 May 23:46:30 23:49:45 85° 335° (NNW) 23:53:01 145.825
ITUPSAT 1 29 May 23:47:08 23:48:12 11° 55° (NE) 23:49:29 437.325
NANOSAT C BR1 29 May 23:49:48 23:54:03 59° 101° (E) 23:58:15 145.865
BEESAT 29 May 23:51:58 23:53:45 12° 56° (ENE) 23:55:44 436.000
DANDE 29 May 23:53:57 00:01:54 87° 78° (ENE) 00:08:03 436.750
UNISAT 6 29 May 23:56:25 00:00:44 56° 288° (WNW) 00:04:56 437.425
CUBEBUG 1 29 May 23:57:11 00:01:11 34° 264° (W) 00:05:13 437.445
SWISSCUBE 29 May 23:59:58 00:02:39 16° 59° (ENE) 00:05:29 437.505
QB50P2 30 May 00:00:12 00:04:31 79° 102° (ESE) 00:08:47 145.880/145.840
CUSAT 1 30 May 00:04:24 00:11:32 64° 265° (W) 00:16:58 437.405
VELOX 1 30 May 00:09:58 00:12:39 15° 272° (W) 00:15:11 145.980
DUCHIFAT 1 30 May 00:10:58 00:15:16 85° 283° (WNW) 00:19:31 145.980
POPSAT HIP 1 30 May 00:11:41 00:16:00 82° 285° (WNW) 00:20:16 437.405
GONETS M04 30 May 00:13:27 00:22:20 86° 81° (E) 00:31:04
BEESAT 3 30 May 00:17:48 00:20:44 19° 34° (NNE) 00:23:43 437.485
BUGSAT 1 30 May 00:19:36 00:23:55 84° 103° (ESE) 00:28:10 437.445
SPROUT 30 May 00:23:14 00:27:31 60° 259° (W) 00:31:51 437.525
ESTCUBE 1 30 May 00:24:53 00:27:58 18° 271° (W) 00:30:57 437.505/2401.250
PCSat 30 May 00:28:56 00:34:15 62° 119° (ESE) 00:39:39 145.827
TISAT 1 30 May 00:34:02 00:38:15 61° 259° (W) 00:42:30 437.305
ANTELSAT 30 May 00:40:31 00:44:00 23° 296° (WNW) 00:47:19 437.575/2403.000
QB50P1 30 May 00:55:47 00:59:34 30° 293° (WNW) 01:03:17 145.935-145.965
POLYITAN 1 30 May 00:59:41 01:03:22 28° 294° (WNW) 01:06:58 437.675
Oscar 19 30 May 01:01:59 01:04:48 15° 87° (E) 01:07:51 437.125/150
VERMONT LUNAR 30 May 01:04:41 01:06:35 15° 162° (SSE) 01:08:32 437.305
BEESAT 2 30 May 01:10:35 01:14:25 36° 43° (NE) 01:18:14 435.950
TIGRISAT 30 May 01:13:02 01:15:01 13° 301° (WNW) 01:16:49 435.000
Cosmos 2499 30 May 01:18:10 01:24:53 45° 71° (ENE) 01:31:42 435.465 / 435.565
ITUPSAT 1 30 May 01:20:35 01:25:18 69° 74° (ENE) 01:30:04 437.325
AIST 2 30 May 01:21:23 01:24:34 20° 34° (NE) 01:27:47 435.215
O/OREOS (USA 219) 30 May 01:23:19 01:27:34 43° 251° (WSW) 01:31:47 437.305
ISS 30 May 01:23:21 01:26:25 37° 355° (N) 01:29:30 145.825
BEESAT 30 May 01:26:08 01:30:53 79° 74° (ENE) 01:35:40 436.000
NANOSAT C BR1 30 May 01:26:41 01:29:30 17° 298° (WNW) 01:32:10 145.865
SWISSCUBE 30 May 01:35:11 01:39:56 80° 255° (WSW) 01:44:44 437.505
STARS 30 May 01:36:26 01:38:48 15° 60° (ENE) 01:41:19 437.465
QB50P2 30 May 01:37:44 01:39:52 13° 300° (WNW) 01:41:51 145.880/145.840
DANDE 30 May 01:38:41 01:43:54 20° 282° (WNW) 01:48:11 436.750
DUCHIFAT 1 30 May 01:49:05 01:50:26 11° 302° (WNW) 01:51:36 145.980
POPSAT HIP 1 30 May 01:50:02 01:51:12 11° 302° (WNW) 01:52:11 437.405
CUSAT 1 30 May 01:50:38 01:52:27 11° 287° (WNW) 01:53:47 437.405
BEESAT 3 30 May 01:55:08 01:59:15 80° 235° (SW) 02:03:17 437.485
BUGSAT 1 30 May 01:56:52 01:58:48 13° 301° (WNW) 02:00:35 437.445
GONETS M04 30 May 02:11:39 02:18:11 23° 281° (WNW) 02:24:20
PHONESAT 2.4 30 May 02:12:21 02:14:28 15° 160° (SSE) 02:16:38 2401.200-2431.200
PCSat 30 May 02:13:23 02:18:06 29° 320° (NW) 02:22:47 145.827
KKS-1 30 May 02:14:23 02:18:41 47° 70° (ENE) 02:23:02 437.445
Gurwin Techsat 1B 30 May 02:19:01 02:23:07 23° 91° (E) 02:27:19 435.225
SO-50 30 May 02:38:16 02:42:50 53° 122° (ESE) 02:47:36 436.795
Oscar 19 30 May 02:39:42 02:44:53 79° 286° (WNW) 02:50:01 437.125/150
VERMONT LUNAR 30 May 02:40:31 02:43:12 24° 178° (S) 02:45:52 437.305
BEESAT 2 30 May 02:48:48 02:52:27 30° 243° (WSW) 02:55:59 435.950
AIST 2 30 May 02:59:24 03:03:39 76° 235° (SW) 03:07:49 435.215
ISS 30 May 03:00:02 03:03:14 50° 15° (NNE) 03:06:26 145.825
ITUPSAT 1 30 May 03:00:52 03:03:46 15° 272° (W) 03:06:30 437.325
ITAMSAT 1 30 May 03:01:00 03:06:06 52° 100° (E) 03:11:13 435.822/435.867
BEESAT 30 May 03:06:59 03:09:25 13° 273° (W) 03:11:37 436.000
AO-7 30 May 03:07:07 03:11:07 15° 82° (E) 03:15:41 29.400- 29.500
STARS 30 May 03:10:16 03:14:43 77° 256° (WSW) 03:19:12 437.465
Cosmos 2499 30 May 03:11:34 03:17:57 37° 272° (W) 03:24:18 435.465 / 435.565
PHONESAT 2.4 30 May 03:49:01 03:51:59 26° 177° (S) 03:54:57 2401.200-2431.200
KKS-1 30 May 03:52:10 03:55:36 21° 269° (W) 03:58:56 437.445
Gurwin Techsat 1B 30 May 03:58:17 04:03:30 56° 290° (WNW) 04:08:41 435.225
PCSat 30 May 04:01:57 04:03:26 11° 344° (NNW) 04:04:51 145.827
Cosmos 2491 30 May 04:03:25 04:08:27 17° 50° (NE) 04:13:53 435.465 / 435.565
MOZHAYETS 4 30 May 04:07:16 04:11:45 57° 72° (ENE) 04:16:15
JAS-2 30 May 04:11:59 04:16:53 41° 98° (E) 04:21:58 435.910
VERMONT LUNAR 30 May 04:17:32 04:19:50 18° 194° (SSW) 04:22:06 437.305
SO-50 30 May 04:19:24 04:23:40 30° 322° (NW) 04:28:00 436.795
Oscar 19 30 May 04:20:55 04:23:29 14° 304° (NW) 04:25:51 437.125/150
HORYU 2 30 May 04:32:11 04:36:37 67° 102° (ESE) 04:41:01 437.375
ISS 30 May 04:36:31 04:39:38 41° 214° (SW) 04:42:44 145.825
ITAMSAT 1 30 May 04:41:04 04:45:21 25° 298° (WNW) 04:49:31 435.822/435.867
AO-7 30 May 04:57:23 05:05:44 69° 105° (ESE) 05:14:06 29.400- 29.500
STRAND 1 30 May 05:22:40 05:26:00 18° 59° (ENE) 05:29:29 437.568
PHONESAT 2.4 30 May 05:26:51 05:29:34 21° 193° (SSW) 05:32:15 2401.200-2431.200
CUTE-I 30 May 05:40:46 05:42:44 12° 84° (E) 05:45:00 437.470
Gurwin Techsat 1B 30 May 05:41:50 05:42:29 10° 308° (NW) 05:42:52 435.225
MOZHAYETS 4 30 May 05:46:18 05:49:24 17° 271° (W) 05:52:21
PRISM 30 May 05:50:44 05:54:08 26° 66° (ENE) 05:57:37 437.425
CUBESAT XI-V 30 May 05:55:27 06:00:00 63° 73° (ENE) 06:04:37 437.345
JAS-2 30 May 05:57:32 06:01:58 29° 296° (WNW) 06:06:24 435.910
Cosmos 2491 30 May 05:58:47 06:07:36 65° 76° (ENE) 06:16:20 435.465 / 435.565
M-CUBED/EXP-1 PRIME 30 May 05:59:24 06:02:28 22° 61° (ENE) 06:05:25 437.505
Cubesat XI-IV 30 May 06:01:07 06:04:49 19° 89° (E) 06:08:41 437.490
SO-50 30 May 06:03:45 06:05:47 12° 346° (NNW) 06:07:46 436.795
AUBIESAT-1 30 May 06:04:17 06:07:16 22° 61° (ENE) 06:10:10 437.475
HORYU 2 30 May 06:10:01 06:12:48 16° 300° (WNW) 06:15:27 437.375
AIST 1 30 May 06:23:38 06:27:02 22° 68° (ENE) 06:30:30
AO-7 30 May 06:50:45 06:58:06 35° 306° (NW) 07:05:18 29.400- 29.500
RS-15 30 May 06:52:32 06:59:07 19° 100° (E) 07:06:26 29.354- 29.394
YUBILEINY 30 May 06:52:35 07:00:54 53° 90° (E) 07:09:18 435.215
STRAND 1 30 May 06:59:36 07:04:41 74° 257° (WSW) 07:09:50 437.568
CUTE-I 30 May 07:18:21 07:23:46 82° 103° (ESE) 07:29:10 437.470
PRISM 30 May 07:25:51 07:29:31 31° 264° (W) 07:33:11 437.425
PCSat 30 May 07:30:49 07:35:05 23° 36° (NE) 07:39:24 145.827
M-CUBED/EXP-1 PRIME 30 May 07:33:25 07:37:12 36° 256° (WSW) 07:40:43 437.505
CUBESAT XI-V 30 May 07:35:01 07:37:58 16° 272° (W) 07:40:44 437.345
AUBIESAT-1 30 May 07:38:11 07:41:56 37° 256° (WSW) 07:45:25 437.475
HO-68 30 May 07:39:37 07:39:55 10° 79° (E) 07:40:47 435.675
